Exeter, United Kingdom

12:37 AM BST on March 27, 2017 (GMT +0100)
Exeter

Weather History for EGTE - November, 2011

Change the Weather History Date:

Friday, November 11, 2011

  Actual Average Record
Temperature  
Mean Temperature 56 °F -  
Max Temperature 58 °F 49 °F 60 °F (2013)
Min Temperature 53 °F 38 °F 30 °F (1998)
Degree Days  
Heating Degree Days 10    
Growing Degree Days 6 (Base 50)    
Moisture  
Dew Point 55 °F    
Average Humidity 93    
Maximum Humidity 100    
Minimum Humidity 88    
Precipitation  
Precipitation 0.35 in - - ()
Sea Level Pressure  
Sea Level Pressure 29.86 in    
Wind  
Wind Speed 13 mph ()    
Max Wind Speed 21 mph    
Max Gust Speed -    
Visibility 5.1 miles    
Events Rain    
Averages and records for this station are not official NWS values.
T = Trace of Precipitation, MM = Missing Value Source: Averaged Metar Reports

Daily Weather History Graph

Daily Weather History Graph

Search for Another Location

Airport or City:

Trip Planner

Search our weather history database for the weather conditions in past years. The results will help you decide how hot, cold, wet, or windy it might be!

Date:

Astronomy

Nov. 11, 2011 Rise Set
Actual Time 7:21 AM GMT 4:33 PM GMT
Civil Twilight 6:45 AM GMT 5:08 PM GMT
Nautical Twilight 6:06 AM GMT 5:48 PM GMT
Astronomical Twilight 5:27 AM GMT 6:26 PM GMT
Moon 4:41 PM GMT (11/11) 8:05 AM GMT (11/11)
Length of Visible Light 10h 22m
Length of Day
9h 11m
Full, 100% of the Moon is Illuminated
Nov 11
Full
Nov 18
Last Quarter
Nov 25
New
Dec 2
First Quarter
Dec 10
Full

Hourly Weather History & Observations

Time (GMT) Temp. Dew Point Humidity Pressure Visibility Wind Dir Wind Speed Gust Speed Precip Events Conditions
12:50 AM 57.2 °F 53.6 °F 88% 29.89 in 6.2 mi SE 11.5 mph - N/A   Mostly Cloudy
1:20 AM 57.2 °F 53.6 °F 88% 29.89 in 6.2 mi SE 15.0 mph - N/A   Scattered Clouds
1:50 AM 57.2 °F 55.4 °F 94% 29.86 in 6.2 mi SE 15.0 mph - N/A   Mostly Cloudy
2:50 AM 57 °F 56 °F 94%  in - Calm Calm - -  
5:50 AM 57 °F 55 °F 89%  in - Calm Calm - -  
6:20 AM 57.2 °F 53.6 °F 88% 29.83 in 6.2 mi SE 16.1 mph - N/A   Scattered Clouds
6:50 AM 57.2 °F 53.6 °F 88% 29.83 in 6.2 mi SE 17.3 mph - N/A   Scattered Clouds
7:20 AM 57.2 °F 53.6 °F 88% 29.83 in 6.2 mi ESE 17.3 mph - N/A   Mostly Cloudy
7:50 AM 57.2 °F 55.4 °F 94% 29.86 in 6.2 mi SE 16.1 mph - N/A   Mostly Cloudy
8:20 AM 57.2 °F 53.6 °F 88% 29.83 in 6.2 mi SE 16.1 mph - N/A   Mostly Cloudy
8:50 AM 57.2 °F 53.6 °F 88% 29.83 in 6.2 mi SE 15.0 mph - N/A   Mostly Cloudy
9:20 AM 57.2 °F 53.6 °F 88% 29.83 in 6.2 mi ESE 17.3 mph - N/A   Mostly Cloudy
9:50 AM 59.0 °F 55.4 °F 88% 29.83 in 6.2 mi SE 17.3 mph - N/A   Mostly Cloudy
10:20 AM 59.0 °F 55.4 °F 88% 29.80 in 6.2 mi ESE 20.7 mph - N/A   Scattered Clouds
10:50 AM 59.0 °F 55.4 °F 88% 29.80 in 6.2 mi ESE 20.7 mph - N/A   Mostly Cloudy
11:20 AM 59.0 °F 55.4 °F 88% 29.83 in 6.2 mi SE 17.3 mph - N/A   Mostly Cloudy
11:50 AM 58 °F 55 °F 88%  in - Calm Calm - -  
11:50 AM 59.0 °F 55.4 °F 88% 29.83 in 6.2 mi SE 18.4 mph - N/A   Mostly Cloudy
12:20 PM 59.0 °F 55.4 °F 88% 29.83 in 6.2 mi SSE 19.6 mph - N/A Rain Light Rain
12:50 PM 57.2 °F 55.4 °F 94% 29.83 in 5.6 mi SSE 17.3 mph - N/A Rain Rain
1:20 PM 57.2 °F 55.4 °F 94% 29.83 in 3.7 mi SSE 17.3 mph - N/A Rain Light Rain
1:50 PM 57.2 °F 55.4 °F 94% 29.83 in 3.7 mi SSE 15.0 mph - N/A   Mostly Cloudy
2:20 PM 57.2 °F 55.4 °F 94% 29.83 in 3.7 mi SSE 13.8 mph - N/A Rain Light Rain
2:50 PM 57 °F 56 °F 97%  in - Calm Calm - -  
2:50 PM 57.2 °F 55.4 °F 94% 29.83 in 3.7 mi SE 12.7 mph - N/A   Mostly Cloudy
3:20 PM 57.2 °F 55.4 °F 94% 29.83 in 3.7 mi SSE 10.4 mph - N/A Rain Light Rain
3:50 PM 57.2 °F 55.4 °F 94% 29.83 in 3.7 mi SSE 11.5 mph - N/A Rain Rain
4:20 PM 57.2 °F 55.4 °F 94% 29.83 in 2.5 mi SE 13.8 mph - N/A Rain Rain
4:50 PM 57.2 °F 55.4 °F 94% 29.83 in 2.2 mi SSE 15.0 mph - N/A Rain Rain
5:20 PM 57.2 °F 55.4 °F 94% 29.83 in 2.5 mi SSE 16.1 mph - N/A Rain Rain
5:50 PM 56 °F 56 °F 100%  in - Calm Calm - -  
5:50 PM 57.2 °F 55.4 °F 94% 29.86 in 2.8 mi South 15.0 mph - N/A Rain Rain
6:20 PM 55.4 °F 55.4 °F 100% 29.86 in 2.8 mi South 12.7 mph - N/A Rain Rain
6:50 PM 55.4 °F 55.4 °F 100% 29.86 in 2.8 mi SSE 8.1 mph - N/A Rain Rain
7:20 PM 55.4 °F 53.6 °F 94% 29.89 in 4.3 mi SSE 11.5 mph - N/A Rain Light Rain
7:50 PM 55.4 °F 53.6 °F 94% 29.89 in 4.3 mi South 10.4 mph - N/A   Mostly Cloudy
8:20 PM 55.4 °F 53.6 °F 94% 29.89 in 4.3 mi South 12.7 mph - N/A   Mostly Cloudy
8:50 PM 55 °F 55 °F 100%  in - Calm Calm - -  
8:50 PM 55.4 °F 53.6 °F 94% 29.92 in 6.2 mi SSE 9.2 mph - N/A   Scattered Clouds
9:20 PM 55.4 °F 53.6 °F 94% 29.92 in 6.2 mi South 8.1 mph - N/A   Mostly Cloudy
9:50 PM 55.4 °F 53.6 °F 94% 29.92 in 6.2 mi South 8.1 mph - N/A   Scattered Clouds
10:20 PM 55.4 °F 53.6 °F 94% 29.95 in 6.2 mi South 8.1 mph - N/A   Partly Cloudy
10:50 PM 53.6 °F 51.8 °F 94% 29.95 in 6.2 mi South 6.9 mph - N/A   Partly Cloudy
11:20 PM 53.6 °F 51.8 °F 94% 29.98 in 6.2 mi South 6.9 mph - N/A   Partly Cloudy
11:50 PM 53 °F 53 °F 100%  in - Calm Calm - -  
11:50 PM 53.6 °F 51.8 °F 94% 29.98 in - South 6.9 mph - N/A   Clear